Date,TemperatureHighF,TemperatureAvgF,TemperatureLowF,DewpointHighF,DewpointAvgF,DewpointLowF,HumidityHigh,HumidityAvg,HumidityLow,PressureMaxIn,PressureMinIn,WindSpeedMaxMPH,WindSpeedAvgMPH,GustSpeedMaxMPH,PrecipitationSumIn
2013-10-1,83.0,76.8,73.0,72.0,67.5,62.0,87,75,50,0.00,40.00,0,-999,0,0.00
2013-10-2,91.0,79.0,71.0,73.0,68.2,62.0,100,73,38,0.00,40.00,0,-999,0,0.00
2013-10-3,92.0,80.5,68.0,71.0,65.8,60.0,100,64,37,0.00,40.00,0,-999,0,0.00
2013-10-4,91.0,79.9,73.0,69.0,65.1,61.0,83,63,38,0.00,40.00,0,-999,0,0.00
2013-10-5,83.0,72.9,61.0,69.0,57.3,39.0,83,60,42,0.00,40.00,0,-999,0,0.00
2013-10-6,79.0,64.0,50.0,54.0,39.7,25.0,100,52,14,0.00,40.00,0,-999,0,0.10
2013-10-7,85.0,56.1,38.0,42.0,35.9,27.0,99,64,13,0.00,40.00,0,-999,0,0.00
2013-10-8,86.0,72.8,46.0,44.0,40.5,36.0,93,36,18,0.00,40.00,0,-999,0,0.00
2013-10-9,83.0,71.6,51.0,56.0,49.1,43.0,91,48,31,0.00,40.00,0,-999,0,0.00
2013-10-10,85.0,72.6,57.0,63.0,59.5,53.0,100,67,39,0.00,40.00,0,-999,0,0.00
2013-10-11,88.0,78.0,71.0,69.0,65.9,62.0,81,68,43,0.00,40.00,0,-999,0,0.00
2013-10-12,91.0,80.3,73.0,74.0,69.1,65.0,100,72,42,0.00,40.00,0,-999,0,0.00
2013-10-13,74.0,70.6,66.0,72.0,69.8,66.0,100,98,83,0.00,40.00,0,-999,0,1.08
2013-10-14,84.0,73.9,69.0,72.0,69.4,64.0,100,87,53,0.00,40.00,0,-999,0,0.01
2013-10-15,76.0,68.5,54.0,71.0,64.4,53.0,100,87,72,0.00,40.00,0,-999,0,0.00
2013-10-16,60.0,54.5,51.0,57.0,53.2,51.0,100,96,81,0.00,40.00,0,-999,0,1.24
2013-10-17,72.0,57.7,44.0,54.0,46.7,42.0,100,72,35,0.00,40.00,0,-999,0,0.01
2013-10-18,72.0,62.1,51.0,64.0,57.6,51.0,100,86,63,0.00,40.00,0,-999,0,0.00
2013-10-19,66.0,51.9,40.0,51.0,40.2,32.0,99,70,29,0.00,40.00,0,-999,0,0.01
2013-10-21,77.0,64.9,51.0,63.0,56.6,50.0,100,76,58,0.00,40.00,0,-999,0,0.00
2013-10-22,74.0,59.8,45.0,51.0,42.0,30.0,93,58,21,0.00,40.00,0,-999,0,0.00
2013-10-23,81.0,53.1,37.0,45.0,39.0,32.0,100,72,17,0.00,40.00,0,-999,0,0.00
2013-10-24,81.0,60.4,39.0,48.0,30.4,-99.9,100,60,21,0.00,40.00,0,-999,0,0.00
2013-10-25,77.0,59.1,42.0,59.0,50.2,42.0,100,76,40,0.00,40.00,0,-999,0,0.00
2013-10-26,77.0,69.3,60.0,63.0,60.6,59.0,95,75,53,0.00,40.00,0,-999,0,0.00
2013-10-27,69.0,63.0,59.0,65.0,60.1,58.0,100,91,67,0.00,40.00,0,-999,0,0.89
2013-10-28,80.0,72.4,63.0,68.0,63.8,62.0,100,75,57,0.00,40.00,0,-999,0,0.00
2013-10-29,81.0,74.5,70.0,72.0,66.0,63.0,100,75,56,0.00,40.00,0,-999,0,0.01
2013-10-30,80.0,73.6,69.0,73.0,69.5,65.0,100,88,66,0.00,40.00,0,-999,0,0.05
2013-10-31,77.0,71.6,46.0,71.0,40.7,-99.9,100,58,14,0.00,40.00,0,-999,0,0.01